Flag for Ukraine Weather past 2 weeks in Kryvyi Rih, Ukraine

Now
36 °F

Passing clouds.


Feels Like: 31 °F
Forecast: 27 / 40 °F
Wind: 6 mph from North

Location: Krivyy Rih / Dnipropetrovs'k

Current Time: Dec 18, 2014 at 5:46:32 PM

Latest Report: Dec 18, 2014 at 5:00 PM


Visibility: N/A

Pressure: 29.95 "Hg

Humidity: 87%

Dew point: 32 °F

Location of Kryvyi RihLocation

Historic Weather in Kryvyi Rih — Graph

°F

Kryvyi Rih temperature yesterday

Maximum temperature yesterday: 46 °F (at 5:00 PM)
Minimum temperature yesterday: 37 °F (at 2:00 AM)
Average temperature yesterday: 41 °F

Past Weeks' High & Low Weather Summary

 TemperatureHumidityPressure
High46 °F (Dec 17, 5:00 PM)100% (Dec 6, 12:02 AM)30.57 "Hg (Dec 6, 12:02 AM)
Low5 °F (Dec 3, 11:00 PM)58% (Dec 5, 1:00 PM)29.83 "Hg (Dec 17, 6:30 PM)
Average30 °F94%30.18 "Hg
* Reported Dec 3 4:00 PM — Dec 18 4:30 PM, Kryvyi Rih, Weather by CustomWeather, © 2014

Note: Actual official high and low records may vary slightly from our data, if they occured in-between our weather recording intervals... More about our weather records

Advertising

Kryvyi Rih weather history for previous 24 hours

 ConditionsComfort  
Time TempWeatherWind HumidityBarometerVisibility
4:30 PM
Dec 18
37 °FOvercast.6 mph87%29.95 "HgN/A
4:00 PM37 °FOvercast.8 mph87%29.95 "HgN/A
3:30 PM37 °FOvercast.6 mph87%29.95 "HgN/A
3:00 PM37 °FLow clouds.6 mph87%29.92 "HgN/A
2:30 PM39 °FLow clouds.8 mph87%29.92 "HgN/A
2:00 PM39 °FLow clouds.6 mph87%29.92 "HgN/A
1:30 PM37 °FLow clouds.6 mph93%29.92 "HgN/A
1:00 PM37 °FLow clouds.8 mph93%29.92 "HgN/A
12:30 PM37 °FLow clouds.8 mph93%29.95 "HgN/A
12:00 PM37 °FLow clouds.8 mph93%29.95 "HgN/A
11:30 AM37 °FLow clouds.8 mph93%29.95 "HgN/A
11:00 AM37 °FLow clouds.8 mph93%29.95 "HgN/A
10:30 AM37 °FLow clouds.10 mph93%29.95 "HgN/A
10:00 AM37 °FLow clouds.8 mph93%29.95 "HgN/A
9:30 AM37 °FFog.10 mph93%29.92 "Hg3 mi
9:00 AM37 °FFog.10 mph93%29.92 "Hg3 mi
8:30 AM37 °FFog.10 mph93%29.92 "Hg3 mi
8:00 AM37 °FFog.10 mph93%29.92 "Hg2 mi
7:30 AM37 °FFog.10 mph93%29.92 "Hg2 mi
7:00 AM37 °FFog.10 mph93%29.89 "Hg2 mi
6:30 AM39 °FFog.13 mph93%29.89 "Hg3 mi
5:30 AM43 °FFog.10 mph93%29.89 "Hg2 mi
5:00 AM43 °FFog.10 mph93%29.86 "Hg2 mi
4:30 AM43 °FFog.3 mph93%29.86 "Hg1 mi
4:00 AM43 °FFog.6 mph93%29.86 "Hg1 mi
3:30 AM43 °FFog.3 mph93%29.86 "Hg1 mi
3:00 AM43 °FFog.3 mph93%29.86 "Hg2 mi
2:30 AM43 °FFog.No wind93%29.86 "Hg2 mi
2:00 AM43 °FFog.No wind93%29.86 "Hg2 mi
1:30 AM43 °FFog.3 mph93%29.86 "Hg2 mi
1:00 AM43 °FFog.3 mph93%29.83 "Hg2 mi
12:30 AM45 °FFog.3 mph93%29.86 "Hg3 mi
12:00 AM45 °FFog.6 mph93%29.86 "Hg3 mi
11:30 PM
Dec 17
46 °FFog.6 mph93%29.83 "Hg3 mi
11:00 PM46 °FOvercast.6 mph93%29.83 "HgN/A
10:30 PM46 °FLow clouds.8 mph93%29.83 "HgN/A
10:00 PM46 °FLow clouds.10 mph93%29.83 "HgN/A
9:30 PM46 °FLow clouds.13 mph93%29.83 "HgN/A
9:00 PM46 °FLow clouds.13 mph93%29.83 "HgN/A
8:30 PM46 °FLow clouds.13 mph93%29.83 "HgN/A
8:00 PM46 °FOvercast.15 mph93%29.83 "HgN/A
7:30 PM46 °FLow clouds.15 mph87%29.83 "HgN/A
7:00 PM46 °FOvercast.15 mph87%29.83 "HgN/A
6:30 PM46 °FOvercast.15 mph87%29.83 "HgN/A
6:00 PM46 °FOvercast.13 mph87%29.86 "HgN/A
5:30 PM46 °FOvercast.13 mph87%29.86 "HgN/A
5:00 PM46 °FOvercast.15 mph87%29.86 "HgN/A
Weather by CustomWeather, © 2014

See weather overviewHow to use our weather pages